CW2303 Weather Reports


Display with metric or nautical units.
time (UTC)temp
F
wind
direction
speed
MPH
gust
MPH
rain 1hr
in
rain 24hr
in
rain mn
in
humidity
%
barometer
mb
20260906021043 80 0 0.0 1.0 0.00 0.10 0.10 66 1014.2
20260906020543 80 0 0.0 1.0 0.00 0.10 0.10 67 1014.0
20260906020108 80 0 0.0 0.0 0.00 0.10 0.10 67 1014.0
20260906015545 79 0 0.0 0.0 0.00 0.10 0.10 67 1013.9
20260906015044 80 0 0.0 0.0 0.00 0.10 0.10 69 1014.0
20260906014626 80 0 0.0 1.0 0.00 0.10 0.10 68 1013.9
20260906014043 80 0 0.0 1.0 0.00 0.10 0.10 69 1013.8
20260906013547 80 0 0.0 1.0 0.00 0.10 0.10 69 1013.8
20260906013108 80 0 0.0 1.0 0.00 0.10 0.10 69 1013.8
20260906012543 80 0 0.0 1.0 0.00 0.10 0.10 70 1013.8
20260906012044 80 146 0.0 1.0 0.00 0.10 0.10 69 1013.8
20260906011559 80 0 0.0 0.0 0.00 0.10 0.10 69 1013.7
20260906011044 81 0 0.0 1.0 0.00 0.10 0.10 68 1013.6
20260906010544 81 0 0.0 1.0 0.00 0.10 0.10 67 1013.8
20260906010107 82 0 0.0 1.0 0.00 0.10 0.10 66 1013.8
20260906005544 82 0 0.0 1.0 0.00 0.10 0.10 66 1013.8
20260906005043 82 179 0.0 2.0 0.00 0.10 0.10 65 1013.8
20260906004614 83 136 0.0 5.0 0.00 0.10 0.10 65 1013.8
20260906004043 83 27 0.0 5.0 0.00 0.10 0.10 66 1013.8
20260906003547 83 10 1.0 2.0 0.00 0.10 0.10 68 1014.0
20260906003059 84 0 0.0 2.0 0.00 0.10 0.10 67 1014.2
20260906002543 84 0 0.0 4.0 0.00 0.10 0.10 66 1014.2
20260906002045 84 217 0.0 10.0 0.00 0.10 0.10 67 1014.2
20260906001604 85 0 3.0 10.0 0.00 0.10 0.10 66 1014.3
20260906001045 85 161 1.0 6.0 0.00 0.10 0.10 65 1014.3
20260906000544 85 34 1.0 5.0 0.01 0.10 0.10 69 1014.2
20260906000109 85 0 0.0 2.0 0.02 0.10 0.10 66 1013.8
20260905235544 84 0 0.0 2.0 0.06 0.10 0.10 74 1013.7
20260905235043 83 252 0.0 0.0 0.10 0.10 0.10 73 1013.7
20260905234604 82 0 0.0 1.0 0.10 0.10 0.10 71 1013.5
20260905234044 81 0 0.0 1.0 0.10 0.10 0.10 76 1013.5
20260905233544 81 0 0.0 1.0 0.10 0.10 0.10 79 1013.4
20260905233109 80 0 0.0 1.0 0.10 0.10 0.10 80 1013.5
20260905232545 81 0 0.0 1.0 0.10 0.10 0.10 78 1013.5
20260905232046 80 150 0.0 2.0 0.10 0.10 0.10 71 1013.5
20260905231602 80 0 0.0 7.0 0.10 0.10 0.10 72 1013.7
20260905231356 80 318 1.0 15.0 0.10 0.10 0.10 66 1013.8
20260905230543 82 38 7.0 21.0 0.09 0.09 0.09 58 1013.9
20260905230110 83 45 12.0 24.0 0.08 0.08 0.08 60 1013.8
20260905225543 85 15 15.0 24.0 0.04 0.04 0.04 57 1013.8
20260905225043 94 38 7.0 14.0 0.00 0.00 0.00 50 1013.9
20260905224608 97 28 4.0 11.0 0.00 0.00 0.00 40 1013.6
20260905224042 97 328 2.0 4.0 0.00 0.00 0.00 38 1013.4
20260905223541 98 49 0.0 4.0 0.00 0.00 0.00 40 1013.3
20260905223107 98 338 0.0 4.0 0.00 0.00 0.00 38 1013.2
20260905222542 98 5 2.0 4.0 0.00 0.00 0.00 38 1013.3
20260905222044 98 85 0.0 3.0 0.00 0.00 0.00 38 1013.3
20260905221606 98 0 0.0 3.0 0.00 0.00 0.00 38 1013.3
20260905221042 98 281 1.0 3.0 0.00 0.00 0.00 37 1013.2
20260905220541 99 273 0.0 4.0 0.00 0.00 0.00 38 1013.3
20260905220123 98 286 0.0 5.0 0.00 0.00 0.00 38 1013.3
20260905215542 98 15 2.0 7.0 0.00 0.00 0.00 37 1013.4
20260905215042 99 12 2.0 7.0 0.00 0.00 0.00 36 1013.4
20260905214606 100 275 1.0 7.0 0.00 0.00 0.00 36 1013.4
20260905214043 100 0 1.0 5.0 0.00 0.00 0.00 36 1013.4
20260905213542 100 139 1.0 6.0 0.00 0.00 0.00 36 1013.3
20260905213108 100 271 2.0 6.0 0.00 0.00 0.00 36 1013.3
20260905212545 100 230 1.0 6.0 0.00 0.00 0.00 36 1013.4
20260905212041 100 227 1.0 7.0 0.00 0.00 0.00 35 1013.5
20260905211610 100 269 2.0 7.0 0.00 0.00 0.00 35 1013.5
20260905211042 101 272 0.0 5.0 0.00 0.00 0.00 35 1013.6
20260905210544 101 0 1.0 5.0 0.00 0.00 0.00 37 1013.6
20260905205545 100 141 0.0 2.0 0.00 0.00 0.00 39 1013.8
20260905205042 99 0 1.0 3.0 0.00 0.00 0.00 36 1013.9
20260905204607 99 192 1.0 3.0 0.00 0.00 0.00 37 1014.0
20260905204041 99 325 1.0 3.0 0.00 0.00 0.00 38 1014.0
20260905203542 98 147 1.0 3.0 0.00 0.00 0.00 36 1014.1
20260905203103 97 135 0.0 2.0 0.00 0.00 0.00 37 1014.2
20260905202544 98 302 0.0 2.0 0.00 0.00 0.00 37 1014.2
20260905202042 99 227 0.0 5.0 0.00 0.00 0.00 37 1014.3
20260905201601 98 324 1.0 5.0 0.00 0.00 0.00 41 1014.3
20260905201043 98 322 2.0 5.0 0.00 0.00 0.00 39 1014.4
20260905200543 98 17 2.0 5.0 0.00 0.00 0.00 40 1014.6
20260905200101 99 0 0.0 4.0 0.00 0.00 0.00 39 1014.6
20260905195543 98 0 0.0 4.0 0.00 0.00 0.00 40 1014.6
20260905195043 97 0 3.0 5.0 0.00 0.00 0.00 39 1014.7
20260905194604 97 321 1.0 5.0 0.00 0.00 0.00 39 1014.8
20260905194044 97 136 1.0 5.0 0.00 0.00 0.00 39 1014.9
20260905193543 98 24 2.0 7.0 0.00 0.00 0.00 40 1014.9
20260905193059 97 292 2.0 7.0 0.00 0.00 0.00 41 1015.0
20260905192544 97 216 2.0 4.0 0.00 0.00 0.00 41 1015.0
20260905192043 97 0 1.0 7.0 0.00 0.00 0.00 41 1015.1
20260905191600 96 15 1.0 7.0 0.00 0.00 0.00 41 1015.3
20260905191043 96 350 1.0 3.0 0.00 0.00 0.00 43 1015.4
20260905190544 96 320 1.0 4.0 0.00 0.00 0.00 43 1015.4
20260905185544 94 338 0.0 8.0 0.00 0.00 0.00 46 1015.8
20260905185044 94 304 0.0 8.0 0.00 0.00 0.00 45 1015.8
20260905184608 95 12 2.0 8.0 0.00 0.00 0.00 44 1015.8
20260905184044 96 27 2.0 11.0 0.00 0.00 0.00 44 1015.9
20260905183545 97 311 4.0 11.0 0.00 0.00 0.00 45 1016.0
20260905183124 97 0 3.0 8.0 0.00 0.00 0.00 42 1016.0
20260905182543 97 271 1.0 6.0 0.00 0.00 0.00 44 1016.1
20260905182044 97 246 1.0 6.0 0.00 0.00 0.00 44 1016.0
20260905181604 98 254 1.0 6.0 0.00 0.00 0.00 44 1016.2
20260905181044 97 134 0.0 4.0 0.00 0.00 0.00 43 1016.2
20260905180544 96 142 1.0 9.0 0.00 0.00 0.00 44 1016.3
20260905180058 96 92 1.0 9.0 0.00 0.00 0.00 46 1016.4
20260905175544 95 348 4.0 9.0 0.00 0.00 0.00 46 1016.4
20260905175045 95 32 3.0 8.0 0.00 0.00 0.00 44 1016.5
20260905174605 95 279 2.0 8.0 0.00 0.00 0.00 46 1016.6
20260905174044 95 312 1.0 7.0 0.00 0.00 0.00 46 1016.7
20260905173544 95 292 2.0 8.0 0.00 0.00 0.00 47 1016.8
20260905173100 94 304 1.0 8.0 0.00 0.00 0.00 49 1016.8
20260905172546 94 316 3.0 8.0 0.00 0.00 0.00 47 1016.9
20260905172044 94 288 1.0 9.0 0.00 0.00 0.00 49 1017.0
20260905171604 94 264 3.0 13.0 0.00 0.00 0.00 50 1017.0
20260905171042 94 281 4.0 13.0 0.00 0.00 0.00 49 1017.0
20260905170543 94 244 1.0 9.0 0.00 0.00 0.00 52 1017.1
20260905170104 93 336 2.0 9.0 0.00 0.00 0.00 50 1017.2
20260905165542 93 321 2.0 9.0 0.00 0.00 0.00 51 1017.3
20260905165045 93 298 2.0 9.0 0.00 0.00 0.00 52 1017.4
20260905164606 92 302 2.0 9.0 0.00 0.00 0.00 52 1017.3
20260905164042 92 312 3.0 9.0 0.00 0.00 0.00 51 1017.3
20260905163545 92 277 2.0 9.0 0.00 0.00 0.00 53 1017.3
20260905163109 92 286 2.0 8.0 0.00 0.00 0.00 53 1017.3
20260905162546 92 295 2.0 5.0 0.00 0.00 0.00 52 1017.4
20260905162043 92 276 2.0 6.0 0.00 0.00 0.00 51 1017.4
20260905161608 91 300 1.0 7.0 0.00 0.00 0.00 52 1017.4
20260905161045 91 336 3.0 7.0 0.00 0.00 0.00 53 1017.4
20260905160545 91 282 1.0 7.0 0.00 0.00 0.00 55 1017.5
20260905160123 91 269 2.0 7.0 0.00 0.00 0.00 54 1017.4
20260905155542 90 20 3.0 9.0 0.00 0.00 0.00 55 1017.4
20260905155045 90 293 1.0 9.0 0.00 0.00 0.00 55 1017.4
20260905154607 90 287 4.0 11.0 0.00 0.00 0.00 57 1017.4
20260905154046 89 284 5.0 11.0 0.00 0.00 0.00 56 1017.4
20260905153545 89 275 2.0 9.0 0.00 0.00 0.00 57 1017.4
20260905153112 89 342 1.0 9.0 0.00 0.00 0.00 56 1017.3
20260905152542 89 311 4.0 9.0 0.00 0.00 0.00 58 1017.4
20260905152046 88 296 3.0 9.0 0.00 0.00 0.00 59 1017.2
20260905151610 88 268 2.0 9.0 0.00 0.00 0.00 58 1017.1
20260905151046 88 271 2.0 9.0 0.00 0.00 0.00 59 1017.2
20260905150545 87 265 2.0 7.0 0.00 0.00 0.00 59 1017.2
20260905150106 87 288 3.0 9.0 0.00 0.00 0.00 61 1017.2
20260905145546 87 310 2.0 9.0 0.00 0.00 0.00 61 1017.1
20260905145044 86 275 4.0 9.0 0.00 0.00 0.00 61 1017.1
20260905144604 86 271 3.0 7.0 0.00 0.00 0.00 61 1017.1
20260905144045 86 290 0.0 6.0 0.00 0.00 0.00 62 1017.1
20260905143546 85 286 1.0 6.0 0.00 0.00 0.00 63 1017.0
20260905143114 85 264 1.0 7.0 0.00 0.00 0.00 64 1017.0
20260905142546 84 269 3.0 7.0 0.00 0.00 0.00 65 1017.0
20260905142046 84 249 2.0 7.0 0.00 0.00 0.00 65 1017.0
20260905141606 84 288 2.0 7.0 0.00 0.00 0.00 65 1016.9
20260905141045 84 281 3.0 7.0 0.00 0.00 0.00 66 1017.0
20260905140545 84 243 1.0 3.0 0.00 0.00 0.00 67 1017.0
20260905140110 83 239 0.0 3.0 0.00 0.00 0.00 67 1017.0
20260905135544 83 205 0.0 2.0 0.00 0.00 0.00 70 1017.0
20260905135045 82 192 0.0 1.0 0.00 0.00 0.00 71 1017.0
20260905134607 81 221 0.0 2.0 0.00 0.00 0.00 72 1017.0
20260905134044 80 188 0.0 6.0 0.00 0.00 0.00 73 1017.1
20260905133544 80 193 1.0 6.0 0.00 0.00 0.00 73 1016.8
20260905133107 79 188 0.0 2.0 0.00 0.00 0.00 73 1016.8
20260905132544 78 0 1.0 2.0 0.00 0.00 0.00 74 1016.7
20260905132044 78 172 0.0 2.0 0.00 0.00 0.00 75 1016.6
20260905131612 77 0 0.0 2.0 0.00 0.00 0.00 76 1016.7
20260905131045 77 0 0.0 2.0 0.00 0.00 0.00 77 1016.8
20260905130545 76 0 0.0 2.0 0.00 0.00 0.00 77 1016.7
20260905130119 76 0 0.0 2.0 0.00 0.00 0.00 77 1016.6
20260905125543 76 0 0.0 1.0 0.00 0.00 0.00 78 1016.6
20260905125045 75 0 0.0 1.0 0.00 0.00 0.00 78 1016.5
20260905124605 75 0 0.0 1.0 0.00 0.00 0.00 78 1016.5
20260905124044 75 0 0.0 1.0 0.00 0.00 0.00 77 1016.6
20260905123544 75 0 0.0 1.0 0.00 0.00 0.00 77 1016.5
20260905123104 75 0 0.0 1.0 0.00 0.00 0.00 77 1016.4
20260905122544 75 0 0.0 0.0 0.00 0.00 0.00 77 1016.3
20260905122045 75 0 0.0 0.0 0.00 0.00 0.00 77 1016.2
20260905121559 75 0 0.0 0.0 0.00 0.00 0.00 77 1016.2
20260905121044 75 0 0.0 1.0 0.00 0.00 0.00 76 1016.2
20260905120544 75 0 0.0 1.0 0.00 0.00 0.00 76 1016.1
20260905120111 75 0 0.0 0.0 0.00 0.00 0.00 76 1016.1
20260905115545 75 0 0.0 1.0 0.00 0.00 0.00 77 1016.1
20260905115046 75 0 0.0 1.0 0.00 0.00 0.00 77 1016.0
20260905114555 74 0 0.0 1.0 0.00 0.00 0.00 77 1015.9
20260905114043 74 0 0.0 0.0 0.00 0.00 0.00 77 1015.9
20260905113544 75 0 0.0 0.0 0.00 0.00 0.00 77 1015.9
20260905113105 75 0 0.0 0.0 0.00 0.00 0.00 76 1015.9
20260905112543 75 0 0.0 1.0 0.00 0.00 0.00 76 1015.9
20260905112045 75 0 0.0 1.0 0.00 0.00 0.00 76 1015.9
20260905111612 75 138 0.0 1.0 0.00 0.00 0.00 77 1015.8
20260905111044 75 0 0.0 0.0 0.00 0.00 0.00 77 1015.9
20260905110543 75 0 0.0 0.0 0.00 0.00 0.00 77 1015.8
20260905110101 75 0 0.0 0.0 0.00 0.00 0.00 76 1015.8
20260905105543 75 0 0.0 0.0 0.00 0.00 0.00 76 1015.9
20260905105044 75 0 0.0 0.0 0.00 0.00 0.00 76 1015.8
20260905104607 75 0 0.0 0.0 0.00 0.00 0.00 75 1015.8
20260905104042 76 0 0.0 0.0 0.00 0.00 0.00 75 1015.7
20260905103542 76 0 0.0 0.0 0.00 0.00 0.00 75 1015.8
20260905103106 76 0 0.0 0.0 0.00 0.00 0.00 75 1015.7
20260905102542 76 0 0.0 0.0 0.00 0.00 0.00 75 1015.7
20260905102044 75 0 0.0 0.0 0.00 0.00 0.00 75 1015.7
20260905101606 75 0 0.0 0.0 0.00 0.00 0.00 75 1015.8
20260905101042 76 0 0.0 0.0 0.00 0.00 0.00 75 1015.8
20260905100542 76 0 0.0 1.0 0.00 0.00 0.00 75 1015.7
20260905100100 76 0 0.0 1.0 0.00 0.00 0.00 75 1015.8
20260905095541 76 134 0.0 1.0 0.00 0.00 0.00 75 1015.8
20260905095042 76 0 0.0 1.0 0.00 0.00 0.00 75 1015.8
20260905094603 76 0 0.0 1.0 0.00 0.00 0.00 74 1015.7
20260905094041 76 0 0.0 1.0 0.00 0.00 0.00 74 1015.6
20260905093541 76 0 0.0 1.0 0.00 0.00 0.00 74 1015.7
20260905093109 76 0 0.0 2.0 0.00 0.00 0.00 75 1015.7
20260905092543 76 0 0.0 2.0 0.00 0.00 0.00 75 1015.8
20260905092047 76 0 0.0 1.0 0.00 0.00 0.00 75 1015.6
20260905091608 75 0 0.0 1.0 0.00 0.00 0.00 76 1015.6
20260905091042 75 0 0.0 1.0 0.00 0.00 0.00 76 1015.6
20260905090546 75 0 0.0 0.0 0.00 0.00 0.00 76 1015.5
20260905090059 75 0 0.0 0.0 0.00 0.00 0.00 75 1015.5
20260905085542 75 0 0.0 0.0 0.00 0.00 0.00 75 1015.6
20260905085043 75 0 0.0 0.0 0.00 0.00 0.00 75 1015.6
20260905084618 75 0 0.0 0.0 0.00 0.00 0.00 75 1015.5
20260905084042 75 0 0.0 0.0 0.00 0.00 0.00 75 1015.5
20260905083542 75 0 0.0 0.0 0.00 0.00 0.00 74 1015.6
20260905083104 76 0 0.0 0.0 0.00 0.00 0.00 74 1015.5
20260905082541 76 0 0.0 1.0 0.00 0.00 0.00 74 1015.4
20260905082044 76 0 0.0 1.0 0.00 0.00 0.00 73 1015.4
20260905081604 76 0 0.0 1.0 0.00 0.00 0.00 73 1015.4
20260905081041 76 0 0.0 1.0 0.00 0.00 0.00 73 1015.4
20260905080542 77 0 0.0 0.0 0.00 0.00 0.00 73 1015.4
20260905080101 77 0 0.0 1.0 0.00 0.00 0.00 72 1015.4
20260905075545 77 0 0.0 1.0 0.00 0.00 0.00 72 1015.5
20260905075041 77 0 0.0 1.0 0.00 0.00 0.00 72 1015.5
20260905074604 77 0 0.0 1.0 0.00 0.00 0.00 71 1015.5
20260905074043 77 0 0.0 1.0 0.00 0.00 0.00 71 1015.6
20260905073544 78 138 0.0 1.0 0.00 0.00 0.00 71 1015.6
20260905073108 78 0 0.0 1.0 0.00 0.00 0.00 71 1015.6
20260905072545 78 131 0.0 1.0 0.00 0.00 0.00 71 1015.6
20260905072042 78 0 0.0 1.0 0.00 0.00 0.00 71 1015.7
20260905071608 78 129 0.0 1.0 0.00 0.00 0.00 71 1015.7
20260905071044 78 0 0.0 1.0 0.00 0.00 0.00 71 1015.8
20260905070542 78 0 0.0 1.0 0.00 0.00 0.00 70 1015.7
20260905070107 78 136 0.0 1.0 0.00 0.00 0.00 70 1015.8
20260905065541 78 138 0.0 1.0 0.00 0.00 0.00 70 1015.8
20260905065048 78 138 0.0 1.0 0.00 0.00 0.00 70 1015.8
20260905064045 78 137 0.0 1.0 0.00 0.00 0.00 70 1015.8
20260905063541 78 139 0.0 1.0 0.00 0.00 0.00 71 1015.8
20260905063109 78 139 0.0 1.0 0.00 0.00 0.00 71 1015.8
20260905062545 78 137 0.0 1.0 0.00 0.00 0.00 71 1015.7
20260905062044 78 0 0.0 1.0 0.00 0.00 0.00 71 1015.8
20260905061611 78 0 0.0 1.0 0.00 0.00 0.00 71 1015.8
20260905061042 77 0 0.0 0.0 0.00 0.00 0.00 71 1015.8
20260905060546 78 157 0.0 0.0 0.00 0.00 0.00 71 1015.7
20260905060104 78 0 0.0 1.0 0.00 0.00 0.00 71 1015.8
20260905055541 78 0 0.0 1.0 0.00 0.00 0.00 70 1015.8
20260905055042 78 0 0.0 1.0 0.00 0.00 0.00 70 1015.8
20260905054600 78 0 0.0 1.0 0.00 0.00 0.00 69 1015.7
20260905054041 79 168 0.0 1.0 0.00 0.00 0.00 69 1015.8
20260905053542 79 156 0.0 1.0 0.00 0.00 0.00 68 1015.9
20260905053137 79 0 0.0 1.0 0.00 0.00 0.00 68 1015.9
20260905052541 79 0 0.0 1.0 0.00 0.00 0.00 68 1015.9
20260905052042 79 129 0.0 1.0 0.00 0.00 0.00 68 1016.0
20260905051604 79 140 0.0 1.0 0.00 0.00 0.00 68 1015.9
20260905051042 79 139 0.0 1.0 0.00 0.00 0.00 68 1015.9
20260905050542 79 0 0.0 1.0 0.00 0.00 0.00 68 1015.9
20260905050108 79 0 0.0 2.0 0.00 0.00 0.00 67 1015.8
20260905045544 80 0 0.0 2.0 0.00 0.00 0.00 67 1015.8
20260905045043 80 134 0.0 1.0 0.00 0.00 0.00 67 1015.8
20260905044602 80 0 0.0 3.0 0.00 0.00 0.00 67 1015.7
20260905044044 80 136 0.0 3.0 0.00 0.00 0.00 67 1015.8
20260905043543 80 136 0.0 2.0 0.00 0.00 0.00 66 1015.8
20260905043113 80 140 1.0 2.0 0.00 0.00 0.00 66 1016.0
20260905042543 80 136 1.0 2.0 0.00 0.00 0.00 67 1015.9
20260905042046 80 138 1.0 2.0 0.00 0.00 0.00 67 1016.0
20260905041608 80 0 0.0 1.0 0.00 0.00 0.00 67 1015.9
20260905041043 80 0 0.0 1.0 0.00 0.00 0.00 67 1015.9
20260905040548 80 0 0.0 1.0 0.00 0.00 0.00 67 1016.0
20260905040105 80 0 0.0 1.0 0.00 0.00 0.00 68 1016.0
20260905035543 80 113 0.0 1.0 0.00 0.00 0.00 68 1016.0
20260905035044 80 130 0.0 1.0 0.00 0.00 0.00 67 1015.9
20260905034602 79 132 0.0 2.0 0.00 0.00 0.00 68 1015.8
20260905034043 79 0 0.0 2.0 0.00 0.00 0.00 68 1015.9
20260905033543 79 132 0.0 2.0 0.00 0.00 0.00 68 1016.0
20260905033107 79 0 0.0 0.0 0.00 0.00 0.00 67 1015.8
20260905032543 80 0 0.0 0.0 0.00 0.00 0.00 66 1015.9
20260905032043 80 0 0.0 0.0 0.00 0.00 0.00 66 1015.8
20260905031605 80 0 0.0 0.0 0.00 0.00 0.00 66 1015.7
20260905031044 80 0 0.0 0.0 0.00 0.00 0.00 67 1015.8
20260905030544 80 0 0.0 0.0 0.00 0.00 0.00 67 1015.7
20260905025544 80 0 0.0 0.0 0.00 0.00 0.00 67 1015.5
20260905025044 80 0 0.0 0.0 0.00 0.00 0.00 68 1015.5
20260905024624 80 0 0.0 0.0 0.00 0.00 0.00 69 1015.4
20260905024043 80 0 0.0 0.0 0.00 0.00 0.00 69 1015.3
20260905023544 80 0 0.0 0.0 0.00 0.00 0.00 69 1015.2
20260905023124 80 0 0.0 0.0 0.00 0.00 0.00 69 1015.1
20260905022543 80 0 0.0 0.0 0.00 0.00 0.00 68 1015.0
20260905022044 80 0 0.0 0.0 0.00 0.00 0.00 68 1015.0
20260905021617 80 0 0.0 0.0 0.00 0.00 0.00 68 1015.0